Location: ???????
(55.8860°N, 38.0932°E)
Time: 16:32:25
(UTC+00:00)

NOSS 7 (E) - Pass Details

Date: 14 April 2024
Orbit: 389 x 1684 km, 63.3° (Epoch: 23 May)

Event Time Altitude Azimuth Distance (km) Brightness Sun altitude
Rises 00:28:19 0° 306° (NW) 2,303 7.9 -14.7°
Reaches altitude 10° 00:30:20 10° 301° (WNW) 1,435 6.8 -14.5°
Maximum altitude 00:33:18 50° 224° (SW) 526 4.3 -14.2°
Drops below altitude 10° 00:36:35 10° 148° (SSE) 1,586 7.1 -13.8°
Sets 00:38:55 0° 143° (SE) 2,585 8.2 -13.6°
